www.pogodaiklimat.ru
ПОГОДА в Йеллоустон Лейк
Время
и дата
20:56 05.02
21:56 05.02
22:56 05.02
23:56 05.02
00:56 06.02
01:56 06.02
02:56 06.02
03:56 06.02
04:56 06.02
05:56 06.02
06:56 06.02
07:56 06.02
08:56 06.02
09:56 06.02
10:56 06.02
11:56 06.02
12:56 06.02
13:56 06.02
14:56 06.02
15:56 06.02
16:56 06.02
17:56 06.02
18:56 06.02
19:56 06.02
20:56 06.02
21:56 06.02
22:56 06.02
23:56 06.02
00:56 07.02
01:56 07.02
02:56 07.02
03:56 07.02
04:56 07.02
05:56 07.02
06:56 07.02
07:56 07.02
08:56 07.02
09:56 07.02
10:56 07.02
11:56 07.02
12:56 07.02
13:56 07.02
14:56 07.02
15:56 07.02
16:56 07.02
17:56 07.02
18:56 07.02
19:56 07.02
Ветер
(напр.,м/с)
Видим. Явления Облачность Т
(С)
Тd
(С)
f
(%)
Тe
(С)
Тes
(С)
Комфортность P
(гПа)
Po
(гПа)
Тmin
(С)
Tmax
(С)
R
(мм)
R24
(мм)
S
(см)
штиль 0 н/о н/о -5.6 -8.9 78 -6 -6 1012.9 753.9
штиль 0 н/о н/о -6.7 -8.3 88 -8 -8 1013.3 754.1
нст 2 н/о н/о -7.2 -8.3 92 -12 -12 1013.0 754.1 -7.2 -3.3 0.3
нст 2 н/о н/о -7.2 -9.4 84 -12 -12 1012.2 754.6
штиль 0 н/о н/о -8.9 -10.0 92 -10 -10 1012.2 754.4
штиль 0 н/о н/о -10.6 -12.2 88 -11 -11 1013.2 754.9
штиль 0 н/о н/о -11.7 -12.8 92 -12 -12 1014.6 755.1
штиль 0 н/о н/о -11.1 -12.2 92 -11 -11 1014.7 755.6
штиль 0 н/о н/о -10.0 -11.7 87 -10 -10 1015.3 755.9 -12.2 -6.7 0.3
штиль 0 н/о н/о -10.0 -11.1 92 -10 -10 1016.3 756.4
штиль 0 н/о н/о -8.9 -10.6 87 -9 -9 1016.9 757.1
штиль 0 н/о н/о -8.9 -10.0 92 -10 -10 1017.8 757.7
З 2 н/о н/о -7.2 -8.9 88 -12 -12 1018.5 758.4
З 3 н/о н/о -6.1 -8.9 81 -12 -12 1019.2 758.9
З 3 н/о н/о -5.0 -8.9 74 -10 -10 1020.3 759.7 -10.0 -4.4
СЗ 4 н/о н/о -3.9 -8.9 68 -10 -10 1020.4 760.2
нст 2 н/о н/о -3.9 -10.0 63 -8 -8 1020.7 759.9
нст 2 н/о н/о -3.3 -10.0 60 -7 -7 1021.3 760.2
З 4 н/о н/о -2.8 -10.0 58 -8 -8 1022.3 760.7
нст 3 н/о н/о -3.9 -9.4 66 -9 -9 1022.7 760.9
нст 2 н/о н/о -3.9 -8.9 68 -8 -8 1022.9 761.5 -5.0 -2.8
штиль 0 н/о н/о -5.0 -8.9 74 -6 -6 1024.0 761.7
З 3 н/о н/о -5.6 -8.9 78 -11 -11 1024.5 762.2
З 2 н/о н/о -5.6 -8.3 81 -10 -10 1025.6 763.0
н/о н/о -5.6 -8.9 78 -6 -6 1024.7 763.0
нст 2 н/о н/о -6.1 -8.9 81 -10 -10 1025.5 763.5
нст 2 н/о н/о -6.7 -8.9 84 -11 -11 1025.3 763.5 -6.7 -3.9
штиль 0 н/о н/о -6.7 -8.9 84 -7 -7 1025.5 764.0
штиль 0 н/о н/о -6.7 -8.9 84 -7 -7 1025.3 763.7
З 3 н/о н/о -6.7 -8.3 88 -12 -12 1025.9 764.2
нст 2 н/о н/о -6.7 -7.8 92 -11 -11 1025.8 764.5
штиль 0 н/о н/о -6.7 -8.3 88 -8 -8 1026.1 764.2
штиль 0 н/о н/о -6.7 -8.9 84 -7 -7 1026.3 764.5 -6.7 -6.7
штиль 0 н/о н/о -7.2 -8.9 88 -8 -8 1027.1 764.5
штиль 0 н/о н/о -7.8 -8.9 92 -9 -9 1028.0 765.0
нст 2 н/о н/о -8.3 -10.0 88 -13 -13 1028.6 765.2
штиль 0 н/о н/о -7.2 -8.3 92 -8 -8 1028.5 765.5
нст 2 н/о н/о -6.1 -8.3 84 -10 -10 1029.3 766.0
нст 3 н/о н/о -5.6 -8.3 81 -11 -11 1029.4 766.3 -8.9 -5.6
нст 2 н/о н/о -4.4 -7.2 81 -9 -9 1028.9 766.0
нст 2 н/о н/о -3.9 -8.3 71 -8 -8 1027.9 765.5
нст 2 н/о н/о -5.6 -7.8 84 -10 -10 1028.3 765.5
нст 2 н/о н/о -6.1 -8.3 84 -10 -10 1028.3 765.5
штиль 0 н/о н/о -5.6 -8.3 81 -6 -6 1028.3 765.5
нст 2 н/о н/о -6.1 -8.9 81 -10 -10 1028.2 765.2 -6.1 -3.9
нст 2 н/о н/о -6.7 -8.9 84 -11 -11 1028.8 765.5
штиль 0 н/о н/о -7.2 -8.9 88 -8 -8 1028.6 765.0
штиль 0 н/о н/о -7.2 -8.9 88 -8 -8 1028.5 764.7
Местоположение метеостанции Yellowstone Lake: широта 44.5444 долгота -110.4211 высота над уровнем моря 2388 м.
В архиве по умолчанию представлена погода в Йеллоустон Лейк за последние 1-2 суток. Обновление информации о фактической погоде в базе происходит ежечасно! Архивные данные за месяц целиком и за предыдущие месяцы Вы можете получить, выбрав интересующий диапазон дат из раскрывающегося списка и нажав кнопку "Ввод!".
Внимание! Архив погоды МЕТАР в базе сайта по станциям, не включенным в климатический монитор, хранится не более 60 дней. Нет смысла пытаться выбрать более раннюю дату.
*Определитесь, кто Вы:
Внимание! Время в таблицах - местное (без учета летнего времени). Для получения всемирного времени необходимо вычесть поправку, которая равна -7 ч.
Смотрите также архив погоды в соседних городах и на ближайших метеорологических станциях:
Партнеры нашего сайта:      
Пояснения к столбцам:
  • Ветер - указаны скорость ветра в м/с - средняя за 10 мин, порывы в срок и между сроками (в фигурных скобках) и направление, откуда дует ветер: С - северный,
  • СВ - северо-восточный, В - восточный, ЮВ - юго-восточный, Ю - южный, ЮЗ - юго-западный, З - западный, СЗ - северо-западный.
  • Видимость - горизонтальная дальность видимости в метрах или километрах. При видимости от 1 до 10 км при отсутствии осадков обычно наблюдается дымка, при ухудшении видимости до 1 км и менее - туман. В сухую погоду видимость может ухудшаться дымом, пылью или мглою.
  • Явления - указаны атмосферные явления, наблюдавшиеся в срок или в последний час перед сроком; фигурными скобками обозначены явления, наблюдавшиеся между сроками (за 1-3 часа до срока); квадратными скобками обозначены град или гололедные отложения с указанием их диаметра в мм.
  • Облачность - указаны через наклонную черту общая и нижняя облачность в баллах и высота нижней границы облаков в метрах; квадратными скобками обозначены формы облаков: Ci - перистые, Cs - перисто-слоистые, Cc - перисто-кучевые, Ac - высококучевые, As - высокослоистые, Sc - слоисто-кучевые, Ns - слоисто-дождевые, Cu - кучевые, Cb - кучево-дождевые. Подробнее классификацию облаков см. в Атласе облаков (PDF).
  • T - Температура воздуха - температура, измеренная на высоте 2 м над землей.
  • Td - Температура точки росы - температура, при понижении до которой содержащийся в воздухе водяной пар достигнет насыщения.
  • f - Относительная влажность воздуха - влажноcть воздуха, измеренная на высоте 2 м над землей.
  • Te - Эффективная температура - температура, которую ощущает одетый по сезону человек в тени. Характеристика душности погоды. При расчете учитывается влияние влажности воздуха и скорости ветра на теплоощущения человека.
  • Tes - Эффективная температура на солнце - температура, которую ощущает человек, с поправкой на солнечный нагрев. Характеристика знойности погоды. Зависит от высоты солнца над горизонтом, облачности и скорости ветра. Ночью, в пасмурную погоду, а также при ветре 12 м/с и более поправка равна нулю.
  • P - Атмосферное давление - приведенное к уровню моря атмосферное давление.
  • Po - Атмосферное давление - измеренное на уровне метеостанции атмосферное давление.
  • Tmin - Минимальная температура - минимум температуры воздуха на высоте 2 м над землей.
  • Tmax - Максимальная температура - максимум температуры воздуха на высоте 2 м над землей.
  • R - Количество осадков - Количество выпавших осадков за период времени, мм. При наведении курсора мыши на число - период времени, за который выпало указанное количество осадков.
  • R24 - Количество осадков - Количество выпавших осадков за 24 часа, мм.
  • S - Снежный покров - Высота снежного покрова, см. При наведении курсора мыши на число - состояние снежного покрова и степень покрытия местности в баллах.